User: anonymous   Login
Location: Unspecified
(0.0000°N, 0.0000°E)
Time: 18:09:04
(UTC+00:00)
Language:

LAPAN A2 - Orbit

View from above orbital plane
View from above orbital plane
View from above satellite
View from above satellite

Ground track
Ground track

The orbit data is extracted from the following two-line orbital elements,

1 40931U 15052B   19085.05492913  .00000711  00000-0  99826-5 0  9994
2 40931   6.0005 300.0525 0012778  36.2418 323.8574 14.76601190188738
Epoch (UTC): 26 March 2019 01:19:05
Eccentricity: 0.0012778
inclination: 6.0005°
perigee height: 631 km
apogee height: 649 km
right ascension of ascending node: 300.0525°
argument of perigee: 36.2418°
revolutions per day: 14.76601190
mean anomaly at epoch: 323.8574°
orbit number at epoch: 18873

The dashed part of the orbit path shows where the satellite is in the earth's shadow,  

DLR